Location: Kr?psko
(53.5977°N, 14.7459°E)
Time: 23:09:54
(UTC+00:00)

Daily predictions for brighter satellites

Satellite Brightness Start Highest point End
(mag) Time Altitude Azimuth Time Altitude Azimuth Time Altitude Azimuth
Cosmos 2233 Rocket 4.1 15:21:10 10° S 15:27:10 59° E 15:33:16 10° NNE
Cosmos 2016 Rocket 4.1 15:22:05 10° S 15:28:12 87° W 15:34:24 10° N
SMAP 3.5 15:25:11 10° SE 15:29:31 39° ENE 15:33:51 10° N
Cosmos 2237 Rocket 3.8 15:26:34 10° W 15:31:21 27° NW 15:36:09 10° NNE
DELTA 2 DEB (DPAF) 4.3 15:27:26 10° NNE 15:31:54 80° WNW 15:36:21 10° SSW
MINOTAUR 4 R/B 4.2 15:29:06 10° NNE 15:32:41 77° WNW 15:36:13 10° SSW
NOSS 3-1 (A) 4.2 15:26:25 10° NW 15:32:55 47° NNE 15:40:40 10° E
NOAA 12 4.1 15:28:59 10° SSE 15:34:15 64° ENE 15:39:33 10° N
Meteor 1-31 Rocket 3.7 15:30:46 10° S 15:34:28 53° W 15:38:13 10° NNW
H-2A R/B 2.9 15:30:55 10° ESE 15:35:20 28° ENE 15:39:40 10° N
Cosmos 44 3.9 15:31:32 10° NW 15:36:13 37° NNE 15:40:37 10° E
Cosmos 1777 Rocket 4.1 15:31:16 10° NNW 15:36:29 58° ENE 15:41:42 10° SE
Cosmos 2285 Rocket 4.1 15:31:27 10° SSW 15:37:54 90° WNW 15:44:24 10° NNE
NOSS 3-1 (C) 4.0 15:31:23 10° NW 15:38:10 59° NNE 15:46:19 10° ESE
Lacrosse 5 2.3 15:35:33 10° WNW 15:40:39 70° SSW 15:45:44 10° SE
Cosmos 1603 3.8 15:38:13 10° SSW 15:43:56 74° ESE 15:49:42 10° NE
ATLAS CENTAUR R/B 2.8 15:41:09 10° S 15:44:27 24° ESE 15:47:48 11° ENE
SL-16 R/B 3.2 15:39:09 10° WSW 15:44:32 42° NW 15:49:58 10° NNE
Cosmos 1656 4.2 15:41:23 10° NNW 15:46:28 36° NE 15:51:34 10° ESE
SeaSat 1 3.9 15:43:45 10° NNE 15:48:06 32° NW 15:52:26 10° WSW
Cosmos 1939 Rocket 3.0 15:45:20 10° SSE 15:49:22 55° ENE 15:53:25 10° N
Okean 3 Rocket 3.7 15:45:16 10° N 15:49:44 54° ENE 15:54:10 10° SSE
ATLAS 3B R/B 4.0 15:46:46 10° NW 15:53:37 50° WSW 16:00:44 10° SSE
Cosmos 2084 4.3 15:50:06 10° NW 15:53:52 31° NNE 15:57:21 12° E
GEOS 3 Rocket 3.6 15:51:32 10° ESE 15:56:44 67° NE 16:01:54 10° NW
Cosmos 1862 3.3 15:52:50 10° N 15:56:48 62° ENE 16:00:44 10° SSE
Cosmos 2098 Rocket 4.0 15:51:30 10° N 15:57:24 83° E 16:04:24 10° SSE
SL-16 R/B 4.3 15:53:23 10° N 15:58:21 26° NW 16:03:19 10° WSW
Cosmos 1725 Rocket 4.5 15:52:21 10° SSW 15:58:28 64° WNW 16:04:40 10° N
ATLAS 5 CENTAUR R/B 4.1 15:54:06 10° WNW 15:59:05 36° SW 16:04:52 10° S
Cosmos 1461 3.6 15:56:32 10° S 16:00:27 37° ESE 16:03:29 15° ENE
USA 308 4.5 15:57:34 10° S 16:00:54 22° SE 16:03:43 12° E
CZ-2D R/B 3.8 15:58:01 10° SE 16:01:34 36° ENE 16:05:08 10° N
Cosmos 1812 Rocket 4.1 15:57:33 10° SSW 16:01:59 63° WNW 16:06:27 10° N
Cosmos 1500 Rocket 4.5 15:58:27 10° N 16:02:18 27° ENE 16:06:06 10° SE
PSLV R/B 3.9 15:59:44 10° SE 16:03:14 43° ENE 16:06:46 10° N
SJ 16-02 1.3 16:00:25 10° NNW 16:04:48 68° ENE 16:09:09 10° SSE
CZ-4C R/B 3.3 15:59:25 10° NW 16:05:10 38° NNE 16:10:57 14° ENE
MOS 1 Rocket 4.4 16:01:30 10° N 16:06:40 52° WNW 16:11:33 10° SW
CZ-2C R/B 3.3 16:02:07 10° S 16:07:10 70° WSW 16:12:01 10° NNW
Cosmos 1943 3.3 16:01:48 10° SW 16:07:27 79° WNW 16:13:07 10° NNE
Cosmos-2242 3.2 16:05:54 10° SSW 16:10:13 75° WNW 16:14:32 10° N
FengYun 1-2 T 4.3 16:04:37 10° SSE 16:10:15 85° WSW 16:15:52 10° NNW
NOAA 6 4.0 16:08:33 10° SSE 16:13:43 88° ENE 16:18:54 10° NNW
CZ-4B R/B 3.4 16:09:24 10° SE 16:14:36 46° ENE 16:19:43 10° N
CORIOLIS 4.1 16:10:25 10° SSE 16:15:48 83° ENE 16:21:16 10° NNW
Cosmos 1842 Rocket 4.3 16:12:40 10° SSE 16:16:39 33° E 16:20:40 10° NNE
Cosmos 2219 Rocket 4.3 16:14:31 10° NW 16:17:24 14° N 16:20:17 10° NNE
CZ-4B R/B 4.0 16:16:29 10° S 16:20:35 48° W 16:24:32 10° NNW
H-2A R/B 3.9 16:21:47 17° NE 16:21:47 17° NE 16:23:33 10° NNE
Iridium 2 3.7 16:20:07 10° N 16:23:55 81° W 16:27:41 10° S
CZ-4 R/B 2.7 16:24:42 20° NE 16:24:42 20° NE 16:27:34 10° NNE
Cosmos 1766 Rocket 3.9 16:20:45 10° NNW 16:25:05 68° W 16:29:23 10° S
Cosmos 1869 4.5 16:24:07 10° SW 16:27:52 43° WNW 16:31:36 10° N
SL-08 R/B 3.9 16:24:37 10° N 16:29:22 57° WNW 16:34:00 10° SW
USA 305 3.8 16:27:44 10° SSW 16:31:36 35° SSE 16:33:32 23° E
Sich 1 4.0 16:28:17 10° N 16:31:51 25° ENE 16:32:14 24° ENE
Cosmos 1606 2.7 16:29:17 10° S 16:32:57 56° E 16:36:11 13° NNE
ARGOS 3.3 16:29:40 10° SE 16:34:53 50° ENE 16:40:07 10° N
COSMO-SKYMED 1 3.4 16:34:17 24° ENE 16:35:52 30° E 16:39:43 10° SSE
USA 276 2.9 16:34:01 10° WSW 16:37:02 43° S 16:38:19 26° SE
Okean O Rocket 1.8 16:33:21 10° SE 16:37:37 49° ENE 16:41:56 10° N
Cosmos 1937 Rocket 4.1 16:33:13 10° NNW 16:38:06 35° NE 16:40:52 22° ESE
Cosmos 1464 Rocket 4.0 16:35:22 10° S 16:41:42 76° E 16:48:07 10° NNE
Cosmos 2360 Rocket 4.0 16:40:56 10° NNW 16:44:05 15° NNE 16:45:36 13° NNE
Aureole 3 4.4 16:39:11 10° S 16:44:33 87° WNW 16:51:21 10° NNE
NOSS 2-2 (C) 4.4 16:40:27 10° NW 16:44:39 41° NNE 16:47:01 27° E
Meteor 2-19 Rocket 4.4 16:40:03 10° NNW 16:46:09 87° WSW 16:52:15 10° S
ERBS 4.1 16:45:23 10° S 16:47:12 18° SE 16:47:12 18° SE
Cosmos 2221 2.3 16:46:48 10° S 16:51:03 75° E 16:55:05 12° NNE
CZ-2C R/B 2.9 16:47:22 13° NNE 16:51:48 44° E 16:56:44 10° S
NOSS 2-1 (E) 3.0 16:48:41 10° SSW 16:51:50 53° SE 16:52:18 47° E
USA 267 3.3 16:47:44 24° ENE 16:51:59 78° NNW 16:58:31 10° W
Cosmos 2369 4.1 16:48:31 10° NNW 16:53:57 41° NE 16:56:08 30° E
ISS -3.3 16:50:51 10° WSW 16:54:10 53° SSE 16:54:50 44° SE
Cosmos 1340 Rocket 2.7 16:50:36 10° NNW 16:54:39 79° ENE 16:58:43 10° SSE
YAOGAN 1 2.9 16:58:27 39° ENE 16:58:46 40° ENE 17:02:50 10° N
deb Chang Zheng 4 3.5 16:54:30 10° SSE 16:58:48 89° ENE 17:03:10 10° NNW
Nadezhda 4 Rocket 4.1 16:52:31 10° NNW 16:58:50 81° W 17:05:10 10° S
Feng Yun 1-1 Rocket 4.4 16:53:07 10° SE 16:58:54 57° ENE 17:04:40 10° N
Cosmos 990 Rocket 3.9 16:53:40 10° NNW 16:58:56 74° ENE 17:04:07 10° SSE
Cosmos 2322 Rocket 3.7 16:55:04 10° NNW 16:58:56 18° NNE 16:59:31 18° NNE
deb Kosmos-1763 4.0 16:55:57 10° S 16:59:07 50° ESE 16:59:07 50° ESE
USA 229 DEB 3.8 16:54:05 10° NW 17:01:16 78° NE 17:07:26 17° SE
USA 229 3.8 16:54:09 10° NW 17:01:22 78° NE 17:07:28 17° SE
Landsat 5 4.0 17:02:19 38° ESE 17:02:19 38° ESE 17:05:50 10° SSE
RESURS DK-1 4.3 16:58:49 10° W 17:02:12 24° NW 17:04:52 14° N
Cosmos 1271 Rocket 3.6 16:58:50 10° SSW 17:02:38 49° WNW 17:06:32 10° N
Lacrosse 5 rocket 1.5 16:59:20 10° W 17:03:05 53° N 17:03:54 44° NE
USA 306 3.3 16:59:04 10° SW 17:03:10 49° SSE 17:04:01 42° ESE
Cosmos 2333 Rocket 4.1 17:00:48 10° NNW 17:04:00 15° N 17:05:22 14° NNE
SL-24 R/B - RUBIN 2 4.2 17:00:17 10° NW 17:04:48 38° NNE 17:05:19 37° NE
Cosmos 1092 Rocket 3.9 16:59:26 10° N 17:05:50 74° ENE 17:12:10 10° SSE
Cosmos 1408 Rocket 4.3 17:02:36 10° NNW 17:06:50 54° W 17:11:03 10° S
NOSS 3-4 (A) 4.4 17:02:07 10° W 17:07:47 38° N 17:11:07 24° NE
NOSS 3-4 (C) 4.4 17:02:12 10° W 17:07:53 38° N 17:11:13 24° NE
Cosmos 1743 Rocket 3.4 17:04:29 10° NNW 17:08:51 88° W 17:13:10 10° S
ATLAS 2AS CENTAUR R/B 3.5 17:03:13 10° WSW 17:10:50 52° NNW 17:15:29 23° NE
SL-16 R/B 3.5 17:06:53 10° NNW 17:11:16 22° NNE 17:11:16 22° NNE
Cosmos 1697 Rocket 2.6 17:05:41 10° NNW 17:11:19 66° NE 17:14:22 27° SE
Cosmos 1980 Rocket 2.6 17:06:17 10° NNW 17:11:44 43° NE 17:12:43 39° ENE
CZ-4 R/B 4.3 17:07:56 10° SSE 17:12:04 88° ENE 17:16:14 10° NNW
H-2A R/B 2.6 17:09:19 10° S 17:14:30 59° W 17:19:35 10° NNW
Cosmos 372 Rocket 4.3 17:09:56 10° NNW 17:14:53 42° NE 17:15:02 42° ENE
Cosmos 2237 Rocket 4.3 17:14:31 10° NW 17:17:29 14° N 17:19:53 11° NNE
Cosmos 44 3.6 17:12:54 10° NW 17:17:46 63° SW 17:20:56 19° SSE
USA 307 3.1 17:14:03 10° SW 17:18:14 54° SSE 17:18:33 53° SE
SJ-11-01 4.4 17:14:56 10° S 17:19:41 78° WSW 17:24:28 10° NNW
Cosmos 2278 4.2 17:15:52 10° NNW 17:21:15 39° NE 17:21:27 39° NE
Cosmos 1627 Rocket 4.3 17:15:02 10° N 17:21:19 81° E 17:27:28 10° SSE
Meteor 2-14 Rocket 4.3 17:15:47 10° N 17:21:57 74° ENE 17:28:02 10° SSE
ATLAS CENTAUR R/B 1.6 17:18:44 10° SW 17:22:55 68° NW 17:23:56 49° NNE
Lacrosse 5 4.3 17:19:11 10° W 17:22:58 21° SW 17:26:44 10° S
Cosmos 2034 Rocket 4.0 17:16:56 10° SSW 17:23:06 81° W 17:29:19 10° N
SKYMED 2 3.4 17:22:52 46° NNE 17:24:09 81° ESE 17:28:30 10° SSW
Cosmos 1428 Rocket 4.3 17:18:11 10° N 17:24:20 85° E 17:30:28 10° S
NOSS 3-1 (A) 4.0 17:17:20 10° NW 17:24:32 84° SW 17:31:39 16° SE
Cosmos 1602 3.7 17:20:51 10° N 17:24:16 69° N 17:24:16 69° N
Meteor 1-14 Rocket 4.3 17:20:06 10° N 17:25:41 52° ENE 17:26:45 46° ESE
Cosmos 1809 Rocket 4.4 17:20:41 10° NNW 17:26:52 90° ESE 17:32:57 10° S
Cosmos 1898 Rocket 3.4 17:22:28 10° NNW 17:27:48 90° WSW 17:31:16 22° SSE
MOS 1-B Rocket 3.8 17:23:19 10° NNE 17:28:57 88° WNW 17:35:01 10° SSW
SL-16 R/B 4.3 17:26:32 10° WNW 17:30:15 17° NNW 17:33:17 12° NNE
Cosmos 1656 4.2 17:25:00 10° NW 17:30:23 57° WSW 17:35:49 10° S
NOSS 2-1 (C) 3.6 17:29:33 10° WSW 17:32:11 51° W 17:32:11 51° W
Cosmos 2084 3.3 17:29:31 10° NW 17:33:46 87° SW 17:33:54 84° SSE
Meteor 2-21 Rocket 4.3 17:27:51 10° N 17:34:02 70° ENE 17:40:07 10° SSE
NOAA 15 4.5 17:32:57 10° SSE 17:38:16 87° ENE 17:43:37 10° NNW
NOSS 2-2 (D) 4.0 17:33:40 10° NW 17:38:19 68° NE 17:38:55 63° ENE
Cosmos 1461 3.6 17:35:25 10° WSW 17:39:27 44° NW 17:39:49 43° NNW
USA 308 3.2 17:36:03 10° WSW 17:39:45 59° SSW 17:39:45 59° SSW
NOSS 2-2 (E) 4.0 17:35:39 10° NW 17:40:28 79° NE 17:41:38 58° ESE
SL-08 RB Rocket 3.9 17:36:02 10° S 17:40:42 72° WSW 17:45:22 10° NNW
NOSS 2-1 (D) 4.1 17:38:52 10° WSW 17:41:11 40° W 17:41:11 40° W
SJ 16-02 4.2 17:39:54 10° NW 17:42:53 18° W 17:45:52 10° SW
Cosmos 468 Rocket 4.3 17:38:46 10° S 17:42:42 48° SSE 17:42:42 48° SSE
Cosmos 2360 4.2 17:40:35 10° NNW 17:46:22 83° WSW 17:48:27 42° SSE
Cosmos 1805 Rocket 4.2 17:46:27 10° NNW 17:50:43 55° W 17:54:57 10° S
Cosmos 1634 Rocket 3.9 17:45:11 10° S 17:51:30 84° E 17:57:53 10° NNE
CZ-4C R/B 2.8 17:48:09 10° NW 17:54:50 66° NE 17:56:09 57° E
H-2A R/B 4.2 17:58:19 22° NNW 17:58:19 22° NNW 17:59:51 10° NNW
CZ-4 R/B 2.7 18:00:41 35° NW 18:00:41 35° NW 18:03:15 10° NNW
ATLAS 5 CENTAUR R/B 2.4 17:50:56 10° NW 17:58:53 74° NW 17:58:53 74° NW
IRS-1C Rocket 4.0 18:00:18 87° NNW 18:00:18 87° NNW 18:05:33 10° NNW
Cosmos 1833 Rocket 3.5 17:55:17 10° SSW 17:58:47 38° S 17:58:47 38° S
CSL-04 Rocket 4.2 18:02:28 45° N 18:02:28 45° N 18:06:14 10° NNW
Cosmos 2219 Rocket 4.1 18:00:09 10° NNW 18:02:42 16° N 18:02:42 16° N
Sich 1 4.1 18:05:39 10° NNW 18:09:17 43° WNW 18:09:17 43° WNW
USA 305 4.3 18:06:57 10° WSW 18:09:32 36° WSW 18:09:32 36° WSW
COSMO-SKYMED 1 3.8 18:11:30 37° NW 18:12:08 39° WNW 18:16:10 10° SW
Okean O Rocket 3.8 18:10:30 10° SSW 18:14:13 25° W 18:17:56 10° NW
Cosmos 1937 Rocket 4.2 18:15:09 10° NW 18:20:17 51° WSW 18:21:05 46° SW
ATLAS CENTAUR R/B 3.6 18:13:53 10° SW 18:19:16 38° SSW 18:19:16 38° SSW
Cosmos 2360 Rocket 4.0 18:25:02 10° NNW 18:27:22 21° N 18:27:22 21° N
ISS -0.3 18:27:29 10° W 18:27:49 12° W 18:27:49 12° W
CZ-2C R/B 3.9 18:28:54 19° N 18:32:02 36° WNW 18:36:45 10° SW
USA 267 3.3 18:35:04 67° N 18:35:04 67° N 18:41:19 10° WNW
YAOGAN 1 4.5 18:35:37 28° WNW 18:35:37 28° WNW 18:38:48 10° NNW
Cosmos 2369 4.4 18:32:46 10° NW 18:38:07 51° WSW 18:38:07 51° WSW
Lacrosse 5 rocket 4.1 18:38:39 10° WNW 18:39:29 16° WNW 18:39:29 16° WNW
Cosmos 2322 Rocket 3.9 18:38:57 10° NNW 18:41:19 24° NNW 18:41:19 24° NNW
Cosmos 2333 Rocket 4.3 18:45:30 10° NNW 18:47:22 18° N 18:47:22 18° N
Cosmos 1697 Rocket 4.4 18:50:12 10° NW 18:54:53 28° WSW 18:56:10 25° SW
Cosmos 1980 Rocket 3.3 18:50:25 10° NW 18:54:31 40° WNW 18:54:31 40° WNW
SL-16 R/B 3.9 18:50:46 10° NNW 18:53:08 25° NNW 18:53:08 25° NNW
ATLAS CENTAUR R/B 4.3 18:58:53 10° WNW 19:00:03 16° WNW 19:00:03 16° WNW
ATLAS 2AS CENTAUR R/B 3.8 18:56:12 10° WNW 19:02:55 38° N 19:02:55 38° N
CZ-4C R/B 3.9 19:36:42 10° NW 19:41:21 40° W 19:41:21 40° W
